Time,TemperatureF,DewpointF,PressureIn,WindDirection,WindDirectionDegrees,WindSpeedMPH,WindSpeedGustMPH,Humidity,HourlyPrecipIn,Conditions,Clouds,dailyrainin,SoftwareType,DateUTC
2013-08-28 00:09:00,79.3,72.0,32.13,WNW,283,0.0,-999.0,79,-99.99,,,0.00,weatherlink.com 1.10,2013-08-28 04:09:00,
2013-08-28 00:24:00,79.1,72.0,32.13,WNW,283,0.0,-999.0,79,-99.99,,,0.00,weatherlink.com 1.10,2013-08-28 04:24:00,
2013-08-28 00:39:00,78.8,72.0,32.13,WNW,283,0.0,-999.0,80,-99.99,,,0.00,weatherlink.com 1.10,2013-08-28 04:39:00,
2013-08-28 00:54:00,78.5,72.0,32.13,WNW,284,0.0,-999.0,81,-99.99,,,0.00,weatherlink.com 1.10,2013-08-28 04:54:00,
2013-08-28 01:09:00,77.9,72.0,32.13,WNW,284,0.0,-999.0,82,-99.99,,,0.00,weatherlink.com 1.10,2013-08-28 05:09:00,
2013-08-28 01:24:00,77.5,72.0,32.13,WNW,284,0.0,-999.0,83,-99.99,,,0.00,weatherlink.com 1.10,2013-08-28 05:24:00,
2013-08-28 01:38:00,77.2,72.0,32.13,WNW,284,0.0,-999.0,83,-99.99,,,0.00,weatherlink.com 1.10,2013-08-28 05:38:00,
2013-08-28 01:53:00,77.0,72.0,32.13,WNW,284,0.0,-999.0,84,-99.99,,,0.00,weatherlink.com 1.10,2013-08-28 05:53:00,
2013-08-28 01:59:00,76.9,71.7,32.13,WNW,284,0.0,0.0,84,0.00,,,0.00,Wunderground v.1.15,2013-08-28 05:59:00,
2013-08-28 02:04:00,76.8,71.6,32.13,WNW,284,0.0,0.0,84,0.00,,,0.00,Wunderground v.1.15,2013-08-28 06:04:00,
2013-08-28 02:15:00,76.7,71.5,32.13,WNW,283,0.0,0.0,84,0.00,,,0.00,Wunderground v.1.15,2013-08-28 06:15:00,
2013-08-28 02:24:00,76.6,72.0,32.13,WNW,283,0.0,-999.0,84,-99.99,,,0.00,weatherlink.com 1.10,2013-08-28 06:24:00,
2013-08-28 02:39:00,76.5,71.0,32.13,WNW,284,0.0,-999.0,84,-99.99,,,0.00,weatherlink.com 1.10,2013-08-28 06:39:00,
2013-08-28 02:54:00,76.4,71.0,32.13,WNW,284,0.0,-999.0,84,-99.99,,,0.00,weatherlink.com 1.10,2013-08-28 06:54:00,
2013-08-28 03:08:00,76.2,71.0,32.13,WNW,284,0.0,-999.0,84,-99.99,,,0.00,weatherlink.com 1.10,2013-08-28 07:08:00,
2013-08-28 03:24:00,75.9,71.0,32.13,WNW,284,0.0,-999.0,84,-99.99,,,0.00,weatherlink.com 1.10,2013-08-28 07:24:00,
2013-08-28 03:39:00,75.5,71.0,32.13,WNW,284,0.0,-999.0,85,-99.99,,,0.00,weatherlink.com 1.10,2013-08-28 07:39:00,
2013-08-28 03:54:00,75.3,71.0,32.13,WNW,283,0.0,-999.0,85,-99.99,,,0.00,weatherlink.com 1.10,2013-08-28 07:54:00,
2013-08-28 04:09:00,75.1,70.0,32.13,WNW,283,0.0,-999.0,85,-99.99,,,0.00,weatherlink.com 1.10,2013-08-28 08:09:00,
2013-08-28 04:24:00,75.1,71.0,32.13,WNW,284,0.0,-999.0,86,-99.99,,,0.00,weatherlink.com 1.10,2013-08-28 08:24:00,
2013-08-28 04:54:00,75.2,71.0,32.13,WNW,284,0.0,-999.0,86,-99.99,,,0.00,weatherlink.com 1.10,2013-08-28 08:54:00,
2013-08-28 05:09:00,75.3,71.0,32.13,WNW,283,0.0,-999.0,86,-99.99,,,0.00,weatherlink.com 1.10,2013-08-28 09:09:00,
2013-08-28 05:24:00,75.8,71.0,32.13,West,261,0.0,-999.0,86,-99.99,,,0.00,weatherlink.com 1.10,2013-08-28 09:24:00,
2013-08-28 05:39:00,75.7,71.0,32.13,West,261,0.0,-999.0,86,-99.99,,,0.00,weatherlink.com 1.10,2013-08-28 09:39:00,
2013-08-28 05:54:00,75.6,71.0,32.13,West,261,0.0,-999.0,86,-99.99,,,0.00,weatherlink.com 1.10,2013-08-28 09:54:00,
2013-08-28 06:09:00,75.5,71.0,32.13,West,261,0.0,-999.0,86,-99.99,,,0.00,weatherlink.com 1.10,2013-08-28 10:09:00,
2013-08-28 06:24:00,75.3,71.0,32.13,West,261,0.0,-999.0,86,-99.99,,,0.00,weatherlink.com 1.10,2013-08-28 10:24:00,
2013-08-28 06:39:00,75.1,71.0,32.13,West,261,0.0,-999.0,87,-99.99,,,0.00,weatherlink.com 1.10,2013-08-28 10:39:00,
2013-08-28 06:54:00,75.2,72.0,32.13,West,261,0.0,-999.0,88,-99.99,,,0.00,weatherlink.com 1.10,2013-08-28 10:54:00,
2013-08-28 07:09:00,75.4,72.0,32.13,West,261,0.0,-999.0,88,-99.99,,,0.00,weatherlink.com 1.10,2013-08-28 11:09:00,
2013-08-28 07:24:00,75.5,72.0,32.13,West,261,0.0,-999.0,88,-99.99,,,0.00,weatherlink.com 1.10,2013-08-28 11:24:00,
2013-08-28 07:39:00,76.5,72.0,32.13,West,277,0.0,-999.0,86,-99.99,,,0.00,weatherlink.com 1.10,2013-08-28 11:39:00,
2013-08-28 07:54:00,76.1,72.0,32.13,West,281,0.0,-999.0,88,-99.99,,,0.00,weatherlink.com 1.10,2013-08-28 11:54:00,
2013-08-28 08:09:00,75.6,73.0,31.41,West,281,0.0,-999.0,90,-99.99,,,0.00,weatherlink.com 1.10,2013-08-28 12:09:00,
2013-08-28 08:24:00,75.4,73.0,31.41,West,281,0.0,-999.0,91,-99.99,,,0.00,weatherlink.com 1.10,2013-08-28 12:24:00,
2013-08-28 08:39:00,75.7,73.0,31.41,West,281,0.0,-999.0,92,-99.99,,,0.00,weatherlink.com 1.10,2013-08-28 12:39:00,
2013-08-28 08:54:00,76.0,74.0,31.41,West,281,0.0,-999.0,92,-99.99,,,0.00,weatherlink.com 1.10,2013-08-28 12:54:00,
2013-08-28 09:09:00,76.3,74.0,31.41,West,281,0.0,-999.0,92,-99.99,,,0.00,weatherlink.com 1.10,2013-08-28 13:09:00,
2013-08-28 09:24:00,76.6,74.0,31.41,West,281,0.0,-999.0,91,-99.99,,,0.00,weatherlink.com 1.10,2013-08-28 13:24:00,
2013-08-28 09:39:00,76.7,74.0,31.41,West,281,0.0,-999.0,90,-99.99,,,0.00,weatherlink.com 1.10,2013-08-28 13:39:00,
2013-08-28 09:54:00,76.8,74.0,31.41,West,281,0.0,-999.0,92,-99.99,,,0.00,weatherlink.com 1.10,2013-08-28 13:54:00,
2013-08-28 10:09:00,76.9,74.0,31.41,West,281,0.0,-999.0,91,-99.99,,,0.00,weatherlink.com 1.10,2013-08-28 14:09:00,
2013-08-28 10:24:00,77.3,75.0,31.41,West,281,0.0,-999.0,92,-99.99,,,0.00,weatherlink.com 1.10,2013-08-28 14:24:00,
2013-08-28 10:39:00,77.5,75.0,31.41,West,281,0.0,-999.0,92,-99.99,,,0.01,weatherlink.com 1.10,2013-08-28 14:39:00,
2013-08-28 10:54:00,77.7,75.0,31.41,West,281,0.0,-999.0,91,-99.99,,,0.01,weatherlink.com 1.10,2013-08-28 14:54:00,
2013-08-28 11:08:00,77.9,76.0,31.41,West,281,0.0,-999.0,92,-99.99,,,0.02,weatherlink.com 1.10,2013-08-28 15:08:00,
2013-08-28 11:23:00,78.2,76.0,31.41,West,281,0.0,-999.0,92,-99.99,,,0.02,weatherlink.com 1.10,2013-08-28 15:23:00,
2013-08-28 11:39:00,78.6,75.0,31.41,West,281,0.0,-999.0,89,-99.99,,,0.02,weatherlink.com 1.10,2013-08-28 15:39:00,
2013-08-28 11:54:00,79.5,75.0,31.41,West,281,0.0,-999.0,87,-99.99,,,0.02,weatherlink.com 1.10,2013-08-28 15:54:00,
2013-08-28 12:09:00,79.9,75.0,31.41,West,281,0.0,-999.0,85,-99.99,,,0.02,weatherlink.com 1.10,2013-08-28 16:09:00,
2013-08-28 12:24:00,79.7,75.0,31.41,West,281,0.0,-999.0,86,-99.99,,,0.02,weatherlink.com 1.10,2013-08-28 16:24:00,
2013-08-28 12:54:00,79.4,74.0,31.66,West,281,0.0,-999.0,84,-99.99,,,0.02,weatherlink.com 1.10,2013-08-28 16:54:00,
2013-08-28 13:24:00,78.0,75.0,31.66,West,281,0.0,-999.0,89,-99.99,,,0.03,weatherlink.com 1.10,2013-08-28 17:24:00,
2013-08-28 13:39:00,77.3,75.0,31.66,West,281,0.0,-999.0,92,-99.99,,,0.04,weatherlink.com 1.10,2013-08-28 17:39:00,
2013-08-28 14:24:00,76.3,74.0,31.66,West,281,0.0,-999.0,93,-99.99,,,0.05,weatherlink.com 1.10,2013-08-28 18:24:00,
2013-08-28 14:39:00,76.3,75.0,31.66,WNW,282,0.0,-999.0,94,-99.99,,,0.05,weatherlink.com 1.10,2013-08-28 18:39:00,
2013-08-28 14:54:00,76.1,74.0,31.66,WNW,282,0.0,-999.0,94,-99.99,,,0.05,weatherlink.com 1.10,2013-08-28 18:54:00,
2013-08-28 15:09:00,76.0,74.0,31.66,West,281,0.0,-999.0,94,-99.99,,,0.05,weatherlink.com 1.10,2013-08-28 19:09:00,
2013-08-28 15:24:00,75.9,74.0,31.66,WNW,282,0.0,-999.0,94,-99.99,,,0.05,weatherlink.com 1.10,2013-08-28 19:24:00,
2013-08-28 15:39:00,75.9,74.0,31.66,West,281,0.0,-999.0,94,-99.99,,,0.05,weatherlink.com 1.10,2013-08-28 19:39:00,
2013-08-28 15:54:00,75.9,74.0,31.66,ESE,113,0.0,-999.0,94,-99.99,,,0.05,weatherlink.com 1.10,2013-08-28 19:54:00,
2013-08-28 16:09:00,75.9,74.0,31.66,ESE,113,0.0,-999.0,94,-99.99,,,0.05,weatherlink.com 1.10,2013-08-28 20:09:00,
2013-08-28 16:24:00,75.9,74.0,31.66,ESE,113,0.0,-999.0,93,-99.99,,,0.05,weatherlink.com 1.10,2013-08-28 20:24:00,
2013-08-28 16:39:00,75.8,74.0,31.66,ESE,113,0.0,-999.0,94,-99.99,,,0.05,weatherlink.com 1.10,2013-08-28 20:39:00,
2013-08-28 16:54:00,75.7,74.0,31.66,ESE,113,0.0,-999.0,93,-99.99,,,0.05,weatherlink.com 1.10,2013-08-28 20:54:00,
2013-08-28 17:09:00,75.5,73.0,31.66,ESE,113,0.0,-999.0,93,-99.99,,,0.05,weatherlink.com 1.10,2013-08-28 21:09:00,
2013-08-28 17:24:00,75.3,73.0,31.66,ESE,113,0.0,-999.0,93,-99.99,,,0.05,weatherlink.com 1.10,2013-08-28 21:24:00,
2013-08-28 17:39:00,75.3,73.0,31.66,ESE,113,0.0,-999.0,93,-99.99,,,0.05,weatherlink.com 1.10,2013-08-28 21:39:00,
2013-08-28 17:54:00,75.3,74.0,31.66,ESE,113,0.0,-999.0,94,-99.99,,,0.05,weatherlink.com 1.10,2013-08-28 21:54:00,
2013-08-28 18:09:00,75.6,74.0,31.66,ESE,113,0.0,-999.0,94,-99.99,,,0.05,weatherlink.com 1.10,2013-08-28 22:09:00,
2013-08-28 18:24:00,75.7,74.0,31.66,ESE,113,0.0,-999.0,94,-99.99,,,0.05,weatherlink.com 1.10,2013-08-28 22:24:00,
2013-08-28 18:39:00,75.8,74.0,31.66,ESE,113,0.0,-999.0,94,-99.99,,,0.05,weatherlink.com 1.10,2013-08-28 22:39:00,
2013-08-28 18:54:00,75.8,74.0,31.66,ESE,113,0.0,-999.0,94,-99.99,,,0.05,weatherlink.com 1.10,2013-08-28 22:54:00,
2013-08-28 19:09:00,76.0,74.0,31.66,ESE,113,0.0,-999.0,94,-99.99,,,0.05,weatherlink.com 1.10,2013-08-28 23:09:00,
2013-08-28 19:24:00,76.0,74.0,31.66,ESE,113,0.0,-999.0,94,-99.99,,,0.05,weatherlink.com 1.10,2013-08-28 23:24:00,
2013-08-28 19:39:00,75.8,74.0,31.66,ESE,113,0.0,-999.0,94,-99.99,,,0.05,weatherlink.com 1.10,2013-08-28 23:39:00,
2013-08-28 19:54:00,75.8,74.0,31.66,ESE,113,0.0,-999.0,94,-99.99,,,0.05,weatherlink.com 1.10,2013-08-28 23:54:00,
2013-08-28 20:09:00,75.7,74.0,31.66,ESE,113,0.0,-999.0,95,-99.99,,,0.05,weatherlink.com 1.10,2013-08-29 00:09:00,
2013-08-28 20:24:00,75.6,74.0,31.66,ESE,113,0.0,-999.0,95,-99.99,,,0.05,weatherlink.com 1.10,2013-08-29 00:24:00,
2013-08-28 20:39:00,75.6,74.0,31.66,ESE,113,0.0,-999.0,95,-99.99,,,0.05,weatherlink.com 1.10,2013-08-29 00:39:00,
2013-08-28 20:54:00,75.6,74.0,31.66,ESE,113,0.0,-999.0,95,-99.99,,,0.05,weatherlink.com 1.10,2013-08-29 00:54:00,
2013-08-28 21:09:00,75.4,74.0,31.66,ESE,113,0.0,-999.0,95,-99.99,,,0.05,weatherlink.com 1.10,2013-08-29 01:09:00,
2013-08-28 21:24:00,75.3,74.0,31.66,ESE,113,0.0,-999.0,95,-99.99,,,0.05,weatherlink.com 1.10,2013-08-29 01:24:00,
2013-08-28 21:39:00,75.3,74.0,31.66,ESE,113,0.0,-999.0,95,-99.99,,,0.05,weatherlink.com 1.10,2013-08-29 01:39:00,
2013-08-28 21:54:00,75.2,74.0,31.66,ESE,113,0.0,-999.0,95,-99.99,,,0.05,weatherlink.com 1.10,2013-08-29 01:54:00,
2013-08-28 22:09:00,75.2,74.0,31.66,ESE,113,0.0,-999.0,95,-99.99,,,0.05,weatherlink.com 1.10,2013-08-29 02:09:00,
2013-08-28 22:24:00,75.1,73.0,31.66,ESE,113,0.0,-999.0,94,-99.99,,,0.05,weatherlink.com 1.10,2013-08-29 02:24:00,
2013-08-28 22:39:00,75.0,73.0,31.66,ESE,113,0.0,-999.0,94,-99.99,,,0.05,weatherlink.com 1.10,2013-08-29 02:39:00,
2013-08-28 22:54:00,75.1,73.0,31.66,ESE,113,0.0,-999.0,94,-99.99,,,0.05,weatherlink.com 1.10,2013-08-29 02:54:00,
2013-08-28 23:09:00,75.1,73.0,31.66,ESE,113,0.0,-999.0,94,-99.99,,,0.05,weatherlink.com 1.10,2013-08-29 03:09:00,
2013-08-28 23:24:00,74.9,73.0,31.66,ESE,113,0.0,-999.0,95,-99.99,,,0.05,weatherlink.com 1.10,2013-08-29 03:24:00,
2013-08-28 23:39:00,74.5,73.0,31.66,ESE,113,0.0,-999.0,95,-99.99,,,0.05,weatherlink.com 1.10,2013-08-29 03:39:00,
2013-08-28 23:54:00,74.4,73.0,31.66,ESE,113,0.0,-999.0,96,-99.99,,,0.05,weatherlink.com 1.10,2013-08-29 03:54:00,